Clearfield, PA

2:25 PM EDT on May 26, 2017 (GMT -0400)
Clearfield-Lawrence

Weather History for KFIG - January, 2014

Change the Weather History Date:

Tuesday, January 14, 2014

  Actual Average (KDUJ) Record (KDUJ)
Temperature  
Mean Temperature 35 °F -  
Max Temperature 44 °F 30 °F 60 °F (1995)
Min Temperature 26 °F 16 °F -3 °F (1964)
Degree Days  
Heating Degree Days 30    
Moisture  
Dew Point 37 °F    
Average Humidity 96    
Maximum Humidity 100    
Minimum Humidity 73    
Precipitation  
Precipitation 0.12 in - - ()
Sea Level Pressure  
Sea Level Pressure 29.74 in    
Wind  
Wind Speed 2 mph (SW)    
Max Wind Speed 10 mph    
Max Gust Speed 18 mph    
Visibility 4 miles    
Events Fog , Rain    
Averages and records for this station are not official NWS values.
T = Trace of Precipitation, MM = Missing Value Source: NWS Daily Summary

Daily Weather History Graph

Daily Weather History Graph

Search for Another Location

Airport or City:

Trip Planner

Search our weather history database for the weather conditions in past years. The results will help you decide how hot, cold, wet, or windy it might be!

Date:

Astronomy

Jan. 14, 2014 Rise Set
Actual Time 7:36 AM EST 5:08 PM EST
Civil Twilight 7:06 AM EST 5:39 PM EST
Nautical Twilight 6:32 AM EST 6:13 PM EST
Astronomical Twilight 5:59 AM EST 6:46 PM EST
Moon 4:12 PM EST (1/14) 6:09 AM EST (1/14)
Length of Visible Light 10h 32m
Length of Day
9h 32m
Waxing Gibbous, 98% of the Moon is Illuminated
Jan 14
Waxing Gibbous
Jan 15
Full
Jan 24
Last Quarter
Jan 30
New
Feb 6
First Quarter

Hourly Weather History & Observations

Time (EST) Temp. Windchill Dew Point Humidity Pressure Visibility Wind Dir Wind Speed Gust Speed Precip Events Conditions
12:06 AM 37.9 °F - 37.9 °F 100% 29.73 in 0.8 mi Calm Calm - 0.01 in Rain Rain
12:28 AM 39.0 °F - 39.0 °F 100% 29.72 in 2.0 mi Calm Calm - 0.03 in Rain Light Rain
12:36 AM 37.0 °F - 37.0 °F 100% 29.72 in 0.8 mi Calm Calm - 0.03 in Rain Light Rain
12:54 AM 37.0 °F - 37.0 °F 100% 29.75 in 0.5 mi Calm Calm - 0.03 in Fog , Rain Light Rain
1:03 AM 39.0 °F - 39.0 °F 100% 29.71 in 2.0 mi Calm Calm - 0.00 in Rain Light Rain
1:10 AM 39.0 °F - 39.0 °F 100% 29.71 in 5.0 mi Calm Calm - 0.01 in Rain Light Rain
1:17 AM 39.0 °F - 39.0 °F 100% 29.71 in 4.0 mi Calm Calm - 0.01 in Rain Light Rain
1:28 AM 39.0 °F - 39.0 °F 100% 29.71 in 1.8 mi Calm Calm - 0.01 in Rain Light Rain
1:41 AM 37.9 °F - 37.9 °F 100% 29.71 in 0.8 mi Calm Calm - 0.02 in Rain Light Rain
1:54 AM 37.9 °F - 37.9 °F 100% 29.73 in 0.5 mi Calm Calm - 0.02 in Fog , Rain Light Rain
2:00 AM 37.9 °F - 37.9 °F 100% 29.71 in 1.0 mi Calm Calm - 0.00 in Rain Light Rain
2:09 AM 37.9 °F - 37.9 °F 100% 29.71 in 0.8 mi Calm Calm - 0.01 in Rain Light Rain
2:33 AM 39.9 °F 36.7 °F 39.0 °F 97% 29.71 in 0.8 mi SW 4.6 mph - 0.02 in Rain Light Rain
2:40 AM 41.0 °F 39.0 °F 41.0 °F 100% 29.71 in 2.0 mi SW 3.5 mph - 0.02 in Rain Light Rain
2:48 AM 39.2 °F 37.0 °F 39.2 °F 100% 29.70 in 0.8 mi South 3.5 mph - 0.02 in Rain Light Rain
2:49 AM 39.9 °F 36.7 °F 39.9 °F 100% 29.73 in 0.8 mi SSW 4.6 mph - 0.02 in Rain Light Rain
3:05 AM 42.1 °F - 42.1 °F 100% 29.70 in 1.0 mi Calm Calm - 0.01 in Rain Light Rain
3:15 AM 41.0 °F - 41.0 °F 100% 29.70 in 0.8 mi Calm Calm - 0.01 in Rain Light Rain
3:25 AM 41.0 °F - 41.0 °F 100% 29.69 in 1.2 mi Calm Calm - 0.01 in Rain Light Rain
3:35 AM 39.9 °F - 39.9 °F 100% 29.69 in 0.8 mi Calm Calm - 0.01 in Rain Light Rain
3:38 AM 41.0 °F - 41.0 °F 100% 29.69 in 1.0 mi Calm Calm - 0.02 in Rain Light Rain
3:54 AM 42.1 °F - 42.1 °F 100% 29.71 in 3.0 mi Calm Calm - 0.02 in   Overcast
4:21 AM 42.1 °F 40.2 °F 42.1 °F 100% 29.68 in 4.0 mi SSW 3.5 mph - 0.00 in Rain Light Rain
4:54 AM 42.1 °F 38.4 °F 42.1 °F 100% 29.70 in 7.0 mi SSW 5.8 mph - 0.00 in Rain Light Rain
5:27 AM 42.1 °F 38.4 °F 42.1 °F 100% 29.67 in 4.0 mi SSW 5.8 mph - 0.00 in Rain Light Rain
5:54 AM 42.1 °F 38.4 °F 42.1 °F 100% 29.70 in 5.0 mi SSW 5.8 mph - 0.01 in Rain Light Rain
6:05 AM 42.1 °F 38.4 °F 42.1 °F 100% 29.68 in 1.8 mi SSW 5.8 mph - 0.00 in Rain Light Rain
6:12 AM 42.1 °F 39.2 °F 42.1 °F 100% 29.68 in 1.5 mi SSW 4.6 mph - 0.01 in Rain Light Rain
6:24 AM 42.1 °F 38.4 °F 42.1 °F 100% 29.69 in 0.8 mi SSW 5.8 mph - 0.01 in Rain Light Rain
6:46 AM 42.1 °F 39.2 °F 42.1 °F 100% 29.68 in 1.0 mi SW 4.6 mph - 0.01 in Rain Light Rain
6:54 AM 42.1 °F 40.2 °F 42.1 °F 100% 29.71 in 2.0 mi WSW 3.5 mph - 0.02 in Rain Light Rain
7:04 AM 42.1 °F 39.2 °F 42.1 °F 100% 29.70 in 3.0 mi WSW 4.6 mph - 0.00 in Rain Light Rain
7:18 AM 42.1 °F - 42.1 °F 100% 29.70 in 9.0 mi Calm Calm - 0.00 in Rain Light Rain
7:27 AM 42.1 °F - 42.1 °F 100% 29.70 in 10.0 mi Calm Calm - 0.00 in Rain Light Rain
7:43 AM 41.0 °F 39.0 °F 41.0 °F 100% 29.71 in 5.0 mi SSW 3.5 mph - 0.00 in Rain Light Rain
7:50 AM 41.0 °F 39.0 °F 41.0 °F 100% 29.71 in 1.5 mi South 3.5 mph - 0.00 in Rain Light Rain
7:54 AM 41.0 °F 39.0 °F 41.0 °F 100% 29.75 in 0.5 mi SSW 3.5 mph - 0.00 in Fog , Rain Light Rain
8:06 AM 41.0 °F 39.0 °F 41.0 °F 100% 29.72 in 0.8 mi WNW 3.5 mph - 0.00 in Rain Light Rain
8:10 AM 41.0 °F 38.0 °F 41.0 °F 100% 29.72 in 1.5 mi West 4.6 mph - 0.00 in Rain Light Rain
8:13 AM 41.0 °F 38.0 °F 41.0 °F 100% 29.73 in 2.5 mi West 4.6 mph - 0.00 in Rain Light Rain
8:15 AM 41.0 °F 37.1 °F 41.0 °F 100% 29.73 in 3.0 mi West 5.8 mph - 0.00 in   Overcast
8:31 AM 41.0 °F 38.0 °F 39.9 °F 96% 29.73 in 10.0 mi West 4.6 mph - 0.00 in   Overcast
8:54 AM 41.0 °F 38.0 °F 39.9 °F 96% 29.77 in 10.0 mi WSW 4.6 mph - 0.00 in   Overcast
9:54 AM 41.0 °F 38.0 °F 39.9 °F 96% 29.79 in 10.0 mi SW 4.6 mph - N/A   Overcast
10:54 AM 41.0 °F 38.0 °F 39.9 °F 96% 29.77 in 8.0 mi SSW 4.6 mph - N/A   Overcast
11:54 AM 42.1 °F 39.2 °F 39.9 °F 92% 29.76 in 10.0 mi SSW 4.6 mph - N/A   Overcast
12:38 PM 42.1 °F 38.4 °F 39.9 °F 92% 29.72 in 10.0 mi SSW 5.8 mph - N/A   Overcast
12:54 PM 42.1 °F 39.2 °F 39.9 °F 92% 29.74 in 10.0 mi South 4.6 mph - N/A   Overcast
1:13 PM 43.0 °F 39.5 °F 39.9 °F 89% 29.70 in 10.0 mi SSW 5.8 mph - N/A   Scattered Clouds
1:39 PM 43.0 °F 39.5 °F 39.0 °F 86% 29.70 in 10.0 mi SW 5.8 mph - N/A   Mostly Cloudy
1:54 PM 43.0 °F 40.3 °F 39.9 °F 89% 29.72 in 10.0 mi Variable 4.6 mph - N/A   Overcast
2:07 PM 44.1 °F 39.5 °F 37.9 °F 79% 29.69 in 10.0 mi West 8.1 mph - N/A   Scattered Clouds
2:54 PM 43.0 °F 37.2 °F 37.0 °F 80% 29.73 in 10.0 mi West 10.4 mph 17.3 mph N/A   Overcast
3:54 PM 41.0 °F 34.7 °F 34.0 °F 76% 29.77 in 10.0 mi WNW 10.4 mph 18.4 mph N/A   Mostly Cloudy
4:41 PM 39.0 °F 34.8 °F 32.0 °F 76% 29.77 in 10.0 mi West 5.8 mph 17.3 mph N/A   Overcast
4:54 PM 39.0 °F 34.0 °F 30.9 °F 73% 29.79 in 10.0 mi West 6.9 mph - N/A   Mostly Cloudy
5:54 PM 36.0 °F 31.1 °F 30.0 °F 79% 29.81 in 10.0 mi West 5.8 mph - N/A   Clear
6:54 PM 35.1 °F 32.2 °F 30.9 °F 85% 29.83 in 10.0 mi SSW 3.5 mph - N/A   Mostly Cloudy
7:54 PM 33.1 °F 30.0 °F 30.9 °F 92% 29.85 in 10.0 mi SW 3.5 mph - N/A   Scattered Clouds
8:54 PM 33.1 °F - 30.9 °F 92% 29.85 in 7.0 mi Calm Calm - N/A   Clear
9:54 PM 30.9 °F - 30.0 °F 96% 29.86 in 4.0 mi Calm Calm - N/A   Clear
10:05 PM 30.0 °F - 28.9 °F 96% 29.82 in 1.8 mi Calm Calm - N/A   Clear
10:13 PM 28.0 °F 21.7 °F 28.0 °F 100% 29.82 in 0.8 mi North 5.8 mph - N/A   Mist
10:22 PM 28.0 °F - 28.0 °F 100% 29.82 in 0.2 mi Calm Calm - N/A Fog Light Freezing Fog
10:26 PM 28.0 °F 24.2 °F 28.0 °F 100% 29.82 in 1.0 mi NNW 3.5 mph - N/A   Mist
10:29 PM 28.0 °F - 28.0 °F 100% 29.82 in 2.0 mi Calm Calm - N/A   Partly Cloudy
10:45 PM 28.9 °F - 28.9 °F 100% 29.82 in 3.0 mi Calm Calm - N/A   Partly Cloudy
10:54 PM 28.0 °F - 28.0 °F 100% 29.86 in 3.0 mi Calm Calm - N/A   Clear
11:01 PM 28.0 °F - 27.0 °F 96% 29.82 in 2.5 mi Calm Calm - N/A   Clear
11:11 PM 28.0 °F 24.2 °F 28.0 °F 100% 29.82 in 3.0 mi North 3.5 mph - N/A   Clear
11:48 PM 26.6 °F 21.2 °F 26.6 °F 100% 29.81 in 2.5 mi North 4.6 mph - N/A   Partly Cloudy
11:49 PM 27.0 °F 21.6 °F 27.0 °F 100% 29.85 in 2.5 mi North 4.6 mph - N/A   Partly Cloudy